This is the latest recevied weather packets stored in our database for station/object N2PUI. If no packets are shown the sender has not sent any weather packets the latest 10 day(s).
| Time | Temp. | Humidity | Pressure | Rain* | Wind** | Luminosity | Snow |
|---|---|---|---|---|---|---|---|
| 1778067649 | 9.44° C | 94% | 1007.7 hPa | 3.56 mm | - | 31 W/m² | - |
| 1778067347 | 9.44° C | 94% | 1007.9 hPa | 4.83 mm | - | 19 W/m² | - |
| 1778067044 | 9.44° C | 94% | 1007.7 hPa | 3.05 mm | - | 17 W/m² | - |
| 1778066741 | 9.44° C | 94% | 1007.9 hPa | 3.05 mm | - | 13 W/m² | - |
| 1778066438 | 9.44° C | 94% | 1008.1 hPa | 1.78 mm | - | 12 W/m² | - |
| 1778066136 | 9.44° C | 94% | 1008 hPa | 0 mm | - | 16 W/m² | - |
| 1778065833 | 9.44° C | 94% | 1008.1 hPa | 0 mm | - | 19 W/m² | - |
| 1778065531 | 9.44° C | 94% | 1008.1 hPa | 0 mm | - | 14 W/m² | - |
| 1778065228 | 9.44° C | 94% | 1008.1 hPa | 1.27 mm | - | 15 W/m² | - |
| 1778064923 | 9.44° C | 94% | 1008.3 hPa | 1.27 mm | - | 14 W/m² | - |
| 1778064621 | 9.44° C | 94% | 1008 hPa | 0 mm | - | 10 W/m² | - |
| 1778064319 | 9.44° C | 94% | 1007.8 hPa | 0 mm | - | 8 W/m² | - |
| 1778064017 | 9.44° C | 94% | 1007.9 hPa | 1.78 mm | - | 9 W/m² | - |
| 1778063713 | 9.44° C | 93% | 1008.1 hPa | 1.78 mm | - | 8 W/m² | - |
| 1778063410 | 9.44° C | 93% | 1007.9 hPa | 0 mm | - | 8 W/m² | - |
| 1778063109 | 9.44° C | 93% | 1008 hPa | 0 mm | - | 6 W/m² | - |
| 1778062806 | 9.44° C | 93% | 1007.9 hPa | 0 mm | - | 4 W/m² | - |
| 1778062502 | 9.44° C | 93% | 1007.5 hPa | 0 mm | - | 4 W/m² | - |
| 1778062199 | 9.44° C | 93% | 1007.5 hPa | 1.27 mm | - | 1 W/m² | - |
| 1778061898 | 9.44° C | 93% | 1007.7 hPa | 1.27 mm | - | 0 W/m² | - |
| 1778061595 | 9.44° C | 93% | 1007.7 hPa | 0 mm | - | 0 W/m² | - |
| 1778061294 | 9.44° C | 93% | 1007.7 hPa | 0 mm | - | 0 W/m² | - |
| 1778060989 | 9.44° C | 93% | 1007.6 hPa | 0 mm | - | 0 W/m² | - |
| 1778060688 | 9.44° C | 93% | 1007.5 hPa | 0 mm | - | 0 W/m² | - |
| 1778060385 | 9.44° C | 93% | 1007.7 hPa | 0 mm | - | 0 W/m² | - |
* Rain latest hour (hover to see other rain measurements)
** Current wind speed in m/s (hover to see current wind gust speed)